Location: American Medical Response
(33.3472°N, 96.5511°W)
Time: 10:54:50
(UTC+00:00)

Cosmos 1805 Rocket - Pass Details

Date: 07 July 2022
Orbit: 605 x 629 km, 82.5° (Epoch: 10 August)

Event Time Altitude Azimuth Distance (km) Brightness Sun altitude
Exits shadow 09:52:21 28° 249° (WSW) 1,164 4.4 -16.4°
Maximum altitude 09:53:33 33° 281° (W) 1,047 4.4 -16.2°
Drops below altitude 10° 09:57:32 10° 346° (NNW) 1,985 6.5 -15.6°
Sets 09:59:56 0° 356° (N) 2,890 7.5 -15.2°
